MB7UBS Weather Reports


time (UTC)temp
F
wind
direction
speed
knots
gust
knots
rain 1hr
in
rain 24hr
in
rain mn
in
humidity
%
barometer
mb
20260902060710 210 91 0.9 2.6 0.00 0.00 0.00 1017.6
20260902055710 210 49 0.0 1.7 0.00 0.00 0.00 1017.7
20260902054710 210 345 0.0 1.7 0.00 0.00 0.00 1017.8
20260902053710 210 62 0.0 0.9 0.00 0.00 0.00 1017.7
20260902052710 210 219 0.0 1.7 0.00 0.00 0.00 1017.8
20260902051710 210 105 0.0 0.0 0.00 0.00 0.00 1017.7
20260902050709 210 105 0.0 0.9 0.00 0.00 0.00 1017.6
20260902045710 210 146 0.0 0.9 0.00 0.00 0.00 1017.7
20260902044709 210 117 0.0 2.6 0.00 0.00 0.00 1017.8
20260902043709 210 117 0.0 1.7 0.00 0.00 0.00 1017.9
20260902042709 210 165 0.0 0.0 0.00 0.00 0.00 1017.9
20260902040709 210 165 0.0 0.0 0.00 0.00 0.00 1017.9
20260902034709 210 165 0.0 0.0 0.00 0.00 0.00 1018.0
20260902033708 210 165 0.0 0.0 0.00 0.00 0.00 1018.1
20260902032708 210 165 0.0 0.0 0.00 0.00 0.00 1018.2
20260902031708 210 165 0.0 0.0 0.00 0.00 0.00 1018.2
20260902030708 210 165 0.0 2.6 0.00 0.00 0.00 1018.2
20260902025708 210 91 0.0 0.0 0.00 0.00 0.00 1018.4
20260902024707 210 91 0.0 2.6 0.00 0.00 0.00 1018.4
20260902023708 210 159 0.0 0.0 0.00 0.00 0.00 1018.3
20260902021707 210 52 0.0 1.7 0.00 0.00 0.00 1018.5
20260902015737 210 94 0.9 1.7 0.00 0.00 0.00 1018.8
20260902014737 210 91 0.0 1.7 0.00 0.00 0.00 1018.7
20260902013736 210 53 0.0 2.6 0.00 0.00 0.00 1018.8
20260902012736 210 49 0.0 1.7 0.00 0.00 0.00 1018.8
20260902011736 210 45 0.0 1.7 0.00 0.00 0.00 1018.8
20260902010736 210 82 0.0 0.0 0.00 0.00 0.00 1018.9
20260902005736 210 82 0.0 0.9 0.00 0.00 0.00 1018.8
20260902004736 210 52 0.0 0.0 0.00 0.00 0.00 1018.8
20260902003735 210 52 0.0 1.7 0.00 0.00 0.00 1019.0
20260902001735 210 55 0.0 0.0 0.00 0.00 0.00 1019.1
20260901235735 210 15 0.0 2.6 0.00 0.00 0.00 1019.1
20260901234734 210 104 0.0 2.6 0.00 0.00 0.00 1019.2
20260901233734 210 35 1.7 1.7 0.00 0.00 0.00 1019.2
20260901232734 210 150 0.0 0.0 0.00 0.00 0.00 1019.1
20260901231734 210 150 0.0 0.0 0.00 0.00 0.00 1019.1
20260901230734 210 150 0.0 0.0 0.00 0.00 0.00 1019.2
20260901224734 210 150 0.0 0.0 0.00 0.00 0.00 1019.3
20260901223733 210 150 0.0 0.9 0.00 0.00 0.00 1019.3
20260901222733 210 100 0.0 0.0 0.00 0.00 0.00 1019.4
20260901220733 210 100 0.0 0.0 0.00 0.00 0.00 1019.3
20260901215733 210 100 0.0 0.0 0.00 0.00 0.00 1019.4
20260901214733 210 100 0.0 0.0 0.00 0.00 0.00 1019.4
20260901213732 210 100 0.0 0.0 0.00 0.00 0.00 1019.5
20260901212732 210 100 0.0 0.0 0.00 0.00 0.00 1019.4
20260901211732 210 100 0.0 0.0 0.00 0.00 0.00 1019.5
20260901205732 210 100 0.0 2.6 0.00 0.00 0.00 1019.5
20260901204732 210 20 0.0 0.9 0.00 0.00 0.00 1019.5
20260901203732 210 76 0.0 2.6 0.00 0.00 0.00 1019.5
20260901202731 210 28 1.7 1.7 0.00 0.00 0.00 1019.4
20260901201731 210 77 0.9 1.7 0.00 0.00 0.00 1019.3
20260901200732 210 108 0.0 2.6 0.00 0.00 0.00 1019.4
20260901194731 210 83 0.9 3.5 0.00 0.00 0.00 1019.4
20260901192731 210 110 0.0 3.5 0.00 0.00 0.00 1019.2
20260901191731 210 49 0.0 3.5 0.00 0.00 0.00 1019.1
20260901190731 210 75 0.0 4.3 0.00 0.00 0.00 1018.9
20260901185731 210 132 0.9 3.5 0.00 0.00 0.00 1018.9
20260901184730 210 96 0.0 3.5 0.00 0.00 0.00 1018.9
20260901183730 210 97 0.9 4.3 0.00 0.00 0.00 1019.0
20260901180729 210 79 0.0 5.2 0.00 0.00 0.00 1019.0
20260901175729 210 75 2.6 7.0 0.00 0.00 0.00 1019.0
20260901173729 210 105 1.7 5.2 0.00 0.00 0.00 1019.1
20260901172729 210 91 2.6 5.2 0.00 0.00 0.00 1019.1
20260901171729 210 68 0.9 6.1 0.00 0.00 0.00 1019.0
20260901170729 210 113 3.5 6.1 0.00 0.00 0.00 1019.0
20260901165729 210 98 0.0 6.1 0.00 0.00 0.00 1019.0
20260901164729 210 80 0.0 5.2 0.00 0.00 0.00 1019.0
20260901163729 210 68 3.5 6.1 0.00 0.00 0.00 1019.1
20260901161728 210 97 1.7 7.8 0.00 0.00 0.00 1019.1
20260901160728 210 82 2.6 7.0 0.00 0.00 0.00 1019.1
20260901155728 210 80 1.7 6.1 0.00 0.00 0.00 1019.2
20260901154728 210 105 4.3 6.1 0.00 0.00 0.00 1019.3
20260901153727 210 46 2.6 7.8 0.00 0.00 0.00 1019.2
20260901152727 210 30 0.9 6.1 0.00 0.00 0.00 1019.1
20260901151727 210 122 3.5 7.0 0.00 0.00 0.00 1019.2
20260901145727 210 90 3.5 6.1 0.00 0.00 0.00 1019.4
20260901144727 210 86 0.9 5.2 0.00 0.00 0.00 1019.5
20260901143726 210 176 2.6 7.0 0.00 0.00 0.00 1019.5
20260901142727 210 82 0.9 6.1 0.00 0.00 0.00 1019.5
20260901140726 210 108 5.2 7.0 0.00 0.00 0.00 1019.6
20260901135726 210 105 2.6 7.8 0.00 0.00 0.00 1019.7
20260901134726 210 79 2.6 7.8 0.00 0.00 0.00 1019.8
20260901133726 210 65 1.7 7.0 0.00 0.00 0.00 1019.8
20260901132726 210 15 1.7 7.0 0.00 0.00 0.00 1019.7
20260901131725 210 120 2.6 6.1 0.00 0.00 0.00 1019.8
20260901125725 210 51 5.2 6.1 0.00 0.00 0.00 1019.8
20260901124725 210 145 4.3 7.8 0.00 0.00 0.00 1019.9
20260901123725 210 108 0.0 6.1 0.00 0.00 0.00 1019.8
20260901122724 210 129 3.5 7.0 0.00 0.00 0.00 1019.8
20260901121725 210 260 1.7 7.0 0.00 0.00 0.00 1019.8
20260901120724 210 107 0.9 4.3 0.00 0.00 0.00 1020.0
20260901115724 210 56 0.9 6.1 0.00 0.00 0.00 1020.0
20260901114724 210 62 2.6 7.0 0.00 0.00 0.00 1020.1
20260901112724 210 138 0.9 4.3 0.00 0.00 0.00 1020.1
20260901111724 210 105 0.9 5.2 0.00 0.00 0.00 1020.2
20260901110724 210 18 3.5 6.1 0.00 0.00 0.00 1020.3
20260901103723 210 35 1.7 5.2 0.00 0.00 0.00 1020.5
20260901102723 210 94 0.9 5.2 0.00 0.00 0.00 1020.4
20260901101723 210 80 2.6 5.2 0.00 0.00 0.00 1020.5
20260901100723 210 104 0.0 5.2 0.00 0.00 0.00 1020.6
20260901095723 210 56 0.9 4.3 0.00 0.00 0.00 1020.7
20260901094723 210 59 1.7 5.2 0.00 0.00 0.00 1020.6
20260901092722 210 27 0.0 0.0 0.00 0.00 0.00 1020.7
20260901091722 210 27 0.0 0.0 0.00 0.00 0.00 1020.8
20260901085722 210 27 0.0 0.0 0.00 0.00 0.00 1020.8
20260901084722 210 27 0.0 0.0 0.00 0.00 0.00 1020.9
20260901082721 210 27 0.0 0.0 0.00 0.00 0.00 1020.8
20260901081721 210 27 0.0 0.0 0.00 0.00 0.00 1020.9
20260901080721 210 27 0.0 0.0 0.00 0.00 0.00 1020.8
20260901075721 210 27 0.0 0.0 0.00 0.00 0.00 1020.7
20260901074721 210 27 0.0 0.0 0.00 0.00 0.00 1020.7
20260901072720 210 27 0.0 0.0 0.00 0.00 0.00 1020.6
20260901071720 210 27 0.0 0.0 0.00 0.00 0.00 1020.4
20260901070720 210 27 0.0 0.0 0.00 0.00 0.00 1020.3
20260901065720 210 27 0.0 0.0 0.00 0.00 0.00 1020.2
20260901064720 210 27 0.0 0.0 0.00 0.00 0.00 1020.2
20260901063719 210 27 0.0 0.0 0.00 0.00 0.00 1020.1